[[{"header":{"parameterUnit":"m.s-1","parameterCategory":1,"la1":30.2991,"la2":30.254,"lo1":-89.0895,"lo2":-89.0444,"dy":0.0017,"dx":0.0017,"nx":28,"ny":28,"refTime":"2024-07-30T03:00:00:Z","depth":0,"parameterNumber":2,"parameterNumberName":"U-component_of_WINDS"},"data":[0,0,0,0,0,0,0,0,0,0,0,0,0,0,0,0,0,0,0,0,0,0,0,0,0,0,0,0,0,0,0,0,0,0,0,0,0,0,0,0,0,0,0,0,0,0,0,0,0,0,0,0,0,0,0,0,0,0,5.2922,5.2924,0,5.3061,5.3062,5.3064,5.2961,5.2957,5.2952,5.2948,5.3094,5.3102,5.311,0,0,0,0,0,0,0,0,0,0,0,0,0,5.2573,5.258,5.2922,5.2924,5.2926,5.306,5.3062,5.3064,5.2962,5.2957,5.2951,5.2946,5.3091,5.3101,5.3111,0,0,0,0,0,0,0,0,0,0,0,0,0,5.272,5.2583,5.2922,5.2891,5.289,5.306,5.3062,5.3065,5.2963,5.2957,5.295,5.2944,5.3088,5.31,5.3112,5.3321,0,0,5.3149,5.3154,0,0,0,0,0,0,0,0,5.2712,5.2733,5.2894,5.2893,5.2892,5.2987,5.2992,5.3151,5.2965,5.2936,5.2948,5.294,5.3064,5.3078,5.3119,5.3328,5.3335,5.315,5.3157,5.3162,5.3166,0,0,0,0,0,0,0,5.2702,5.2726,5.2977,5.2896,5.2895,5.2871,5.2885,5.3022,5.3036,5.2938,5.293,5.2948,5.3062,5.3107,5.3121,5.3337,5.315,5.316,5.3168,5.3173,5.3723,5.373,0,0,0,0,0,0,5.2694,5.2718,5.2973,5.2981,5.2783,5.2883,5.2898,5.2963,5.3034,5.3038,5.2954,5.2943,5.309,5.3107,5.3126,5.3374,5.3162,5.3174,5.3181,5.3716,5.3725,5.3733,0,0,0,0,0,0,5.2687,5.2718,5.2967,5.2848,5.2878,5.2896,5.297,5.297,5.3014,5.3046,5.3049,5.2997,5.3085,5.3109,5.3273,5.3378,5.3179,5.319,5.3707,5.3719,5.3729,5.3873,0,0,0,0,0,0,5.2677,5.2716,5.2795,5.285,5.2885,5.3111,5.2977,5.2977,5.3035,5.3022,5.3087,5.3092,5.3082,5.3255,5.3285,5.3391,5.32,5.3698,5.3712,5.3725,5.3859,5.3888,5.3912,0,0,0,0,0,5.2665,5.2831,5.2799,5.283,5.2984,5.3117,5.3137,5.3121,5.3044,5.3124,5.3144,5.309,5.3362,5.3273,5.3305,5.3417,5.3691,5.3708,5.3724,5.3847,5.3882,5.3912,0,0,0,0,0,0,5.2789,5.2838,5.2803,5.2992,5.3051,5.31,5.32,5.3159,5.3242,5.3227,5.3205,5.3221,5.3392,5.3421,5.3321,5.3622,5.3514,5.3538,5.3597,5.363,5.3656,5.3645,5.321,0,0,0,0,0,5.2838,5.2941,5.2979,5.3142,5.3173,5.3182,5.324,5.3222,5.3283,5.3308,5.334,5.3403,5.3502,5.3568,5.3661,5.3863,5.3875,5.3956,5.3982,5.4004,5.4025,5.4132,5.4167,5.3787,5.3787,5.3787,0,0,5.2941,5.298,5.3047,5.3168,5.3212,5.332,5.3204,5.3324,5.3403,5.3327,5.3482,5.3509,5.3577,5.376,5.3843,5.3789,5.4132,5.4025,5.4042,5.4051,5.4152,5.4188,5.422,5.3799,5.3797,5.3795,0,0,5.3183,5.3224,5.3363,5.3409,5.3476,5.348,5.3514,5.3569,5.3583,5.3738,5.3682,5.3778,5.395,5.4,5.4048,5.4309,5.4261,5.434,5.4479,5.4583,5.4613,5.464,5.473,5.4764,5.4361,5.4361,5.4361,0,5.3302,5.3461,5.344,5.3563,5.3617,5.3552,5.3692,5.3739,5.3834,5.3873,5.3812,5.4025,5.4067,5.426,5.4323,5.4365,5.4402,5.4332,5.461,5.4637,5.4661,5.4747,5.4782,5.437,5.4369,5.4368,5.4367,0,5.3604,5.3715,5.382,5.3911,5.3978,5.411,5.4109,5.4179,5.4156,5.4167,5.4326,5.4373,5.4474,5.4519,5.4499,5.471,5.4674,5.4613,5.4503,5.4706,5.4787,5.482,5.4383,5.438,5.4377,5.4375,0,0,5.3927,5.4003,5.4042,5.4082,5.4151,5.4237,5.4366,5.4463,5.4523,5.4591,5.4698,5.4845,5.4787,5.4842,5.4827,5.4919,5.512,5.4846,5.4847,5.4893,5.5353,5.5397,5.5436,5.509,5.5096,5.5101,5.5346,0,5.417,5.4392,5.4377,5.4586,5.4688,5.4627,5.4739,5.4794,5.4809,5.4898,5.4914,5.5017,5.4935,5.4967,5.5056,5.5077,5.5212,5.5059,5.5188,5.5193,5.517,5.5478,5.5526,5.5755,5.5378,5.5383,5.5387,0,5.4484,5.456,5.4779,5.4831,5.4874,5.4975,5.5061,5.5148,5.5209,5.5213,5.5273,5.5242,5.5373,5.5262,5.544,5.5337,5.5389,5.5408,5.5416,5.5426,5.5301,5.5494,5.5828,5.5862,5.5437,5.5433,5.543,0,5.4694,5.4853,5.5003,5.504,5.5105,5.5177,5.5208,5.5262,5.5321,5.5398,5.5435,5.5528,5.5578,5.565,5.5644,5.5564,5.5825,5.5714,5.5831,5.5832,5.5887,5.5884,5.6232,5.5925,5.5925,5.5924,5.5923,0,5.4966,5.5102,5.5098,5.5191,5.5342,5.5324,5.5474,5.5497,5.5545,5.5642,5.5596,5.5688,5.5676,5.5769,5.5766,5.5913,5.5937,5.5943,5.594,5.5946,5.5945,5.5978,5.5961,5.5933,5.5931,5.5929,5.5928,0,5.5226,5.5229,5.5389,5.5438,5.5453,5.5562,5.5603,5.5691,5.5701,5.5824,5.5852,5.5868,5.5974,5.5976,5.6099,5.6097,5.6276,5.6257,5.6255,5.625,5.6366,5.6354,5.6747,5.6796,5.646,5.6463,5.6466,0,5.5398,5.5501,5.556,5.562,5.5655,5.5754,5.5813,5.5799,5.5863,5.5939,5.6018,5.612,5.62,5.6373,5.6396,5.6489,5.647,5.6601,5.6484,5.6486,5.6469,5.6462,5.6472,5.6624,5.6627,5.663,5.6633,0,5.5703,5.5699,5.5785,5.5873,5.5944,5.6013,5.6076,5.6128,5.6122,5.6196,5.6303,5.6365,5.6489,5.659,5.668,5.6713,5.6672,5.667,5.6701,5.6707,5.6701,5.6703,5.6315,5.6661,5.6658,5.6656,5.6654,5.6653,5.5923,5.601,5.6065,5.6162,5.6208,5.6268,5.6352,5.6372,5.6461,5.6559,5.6546,5.6665,5.6723,5.6839,5.688,5.6973,5.6927,5.6974,5.6985,5.6996,5.7007,5.6688,5.699,5.6989,5.6988,5.6987,5.6987,0,5.6223,5.6254,5.6344,5.6433,5.651,5.6464,5.6531,5.6599,5.6703,5.676,5.6839,5.6962,5.706,5.7091,5.7185,5.7254,5.7237,5.7279,5.7273,5.728,5.7044,5.7006,5.729,5.729,5.729,5.729,5.729,5.729,5.6388,5.6533,5.6536,5.6703,5.6734,5.6849,5.6891,5.6946,5.6991,5.7129,5.7209,5.7228,5.7275,5.7372,5.7459,5.7466,5.7502,5.7551,5.755,5.7328,5.7297,5.7268,5.7232,5.7559,5.756,5.7778,5.778,5.7781]},{"header":{"parameterUnit":"m.s-1","parameterCategory":1,"la1":30.2991,"la2":30.254,"lo1":-89.0895,"lo2":-89.0444,"dy":0.0017,"dx":0.0017,"nx":28,"ny":28,"refTime":"2024-07-30T03:00:00:Z","depth":0,"parameterNumber":3,"parameterNumberName":"V-component_of_WINDS"},"data":[0,0,0,0,0,0,0,0,0,0,0,0,0,0,0,0,0,0,0,0,0,0,0,0,0,0,0,0,0,0,0,0,0,0,0,0,0,0,0,0,0,0,0,0,0,0,0,0,0,0,0,0,0,0,0,0,0,0,1.563,1.563,0,1.5715,1.5716,1.5717,1.572,1.5719,1.5718,1.5718,1.5804,1.5807,1.5811,0,0,0,0,0,0,0,0,0,0,0,0,0,1.5468,1.5471,1.5629,1.5631,1.5632,1.5715,1.5716,1.5717,1.5721,1.5719,1.5718,1.5717,1.5803,1.5807,1.5811,0,0,0,0,0,0,0,0,0,0,0,0,0,1.5544,1.5472,1.5629,1.5643,1.5646,1.5714,1.5716,1.5717,1.5721,1.5719,1.5718,1.5716,1.5802,1.5807,1.5811,1.5872,0,0,1.5826,1.5828,0,0,0,0,0,0,0,0,1.554,1.555,1.564,1.5643,1.5645,1.5705,1.5691,1.5769,1.5721,1.5692,1.5717,1.5716,1.5773,1.578,1.5799,1.5876,1.588,1.5827,1.583,1.5832,1.5833,0,0,0,0,0,0,0,1.5534,1.5546,1.5663,1.5642,1.5645,1.5645,1.5654,1.5706,1.574,1.5695,1.5695,1.5705,1.5774,1.5794,1.5801,1.5881,1.5827,1.5831,1.5834,1.5836,1.6009,1.6011,0,0,0,0,0,0,1.5527,1.5542,1.5661,1.5666,1.5588,1.5649,1.5659,1.5688,1.5739,1.5746,1.5706,1.5705,1.5787,1.5795,1.5804,1.5877,1.5832,1.5836,1.5839,1.6008,1.601,1.6011,0,0,0,0,0,0,1.5523,1.5537,1.5657,1.5604,1.5619,1.5653,1.5685,1.569,1.5711,1.5748,1.5754,1.5722,1.5786,1.5797,1.5855,1.588,1.5839,1.5843,1.6006,1.6008,1.601,1.6024,0,0,0,0,0,0,1.5518,1.5536,1.556,1.5605,1.5622,1.5707,1.5687,1.5693,1.5719,1.5718,1.5764,1.577,1.5786,1.5847,1.5859,1.5886,1.5847,1.6003,1.6007,1.601,1.6022,1.6027,1.6031,0,0,0,0,0,1.5513,1.5561,1.5561,1.5575,1.5653,1.5708,1.5718,1.5736,1.5721,1.5745,1.5769,1.5769,1.5875,1.5853,1.5867,1.5895,1.6002,1.6006,1.6009,1.6019,1.6026,1.6031,0,0,0,0,0,0,1.5518,1.5567,1.5568,1.5632,1.5666,1.5709,1.574,1.5742,1.5781,1.5778,1.5798,1.5808,1.5864,1.5885,1.586,1.5955,1.5937,1.5944,1.594,1.5946,1.5951,1.5945,1.5851,0,0,0,0,0,1.5527,1.5568,1.5608,1.5661,1.5678,1.5706,1.573,1.574,1.5777,1.5791,1.5819,1.5854,1.5895,1.5921,1.5962,1.6024,1.6033,1.605,1.6055,1.6059,1.6065,1.6098,1.6106,1.6024,1.6024,1.6024,0,0,1.5545,1.5577,1.5602,1.5663,1.569,1.5732,1.5718,1.5763,1.5794,1.5798,1.5853,1.5875,1.5914,1.5974,1.6002,1.5994,1.6089,1.6064,1.6067,1.607,1.6103,1.611,1.6117,1.6026,1.6026,1.6025,0,0,1.56,1.5629,1.5675,1.5702,1.5744,1.5762,1.5773,1.5815,1.583,1.5886,1.5889,1.5925,1.5996,1.6024,1.6047,1.611,1.6111,1.6122,1.6148,1.618,1.6187,1.6192,1.6214,1.6221,1.6128,1.6128,1.6128,0,1.5618,1.5682,1.5698,1.5743,1.5769,1.5774,1.582,1.5846,1.5898,1.5916,1.5906,1.5993,1.6021,1.6086,1.6101,1.612,1.6133,1.6118,1.6184,1.619,1.6196,1.6217,1.6225,1.6129,1.6129,1.6129,1.6129,0,1.5701,1.5744,1.5776,1.5827,1.5856,1.5902,1.5924,1.5952,1.5959,1.5977,1.6033,1.6065,1.6111,1.6127,1.6135,1.6194,1.6187,1.618,1.6162,1.6205,1.6224,1.6232,1.6131,1.613,1.613,1.613,0,0,1.5763,1.5821,1.5832,1.5854,1.5899,1.5933,1.5978,1.6023,1.6045,1.6081,1.6118,1.6177,1.617,1.6197,1.6207,1.6235,1.6281,1.6225,1.6226,1.6234,1.6346,1.6351,1.636,1.6281,1.6283,1.6284,1.6343,0,1.5823,1.5903,1.5918,1.5987,1.6027,1.6031,1.607,1.6101,1.6119,1.6155,1.6174,1.6215,1.6204,1.622,1.6248,1.627,1.6304,1.6266,1.6316,1.6317,1.6306,1.637,1.6376,1.6429,1.635,1.6352,1.6353,0,1.5903,1.594,1.6013,1.6052,1.6069,1.6103,1.6145,1.6179,1.6214,1.6225,1.6253,1.626,1.6305,1.6284,1.6346,1.6319,1.634,1.6354,1.6356,1.6361,1.6338,1.6377,1.6447,1.6455,1.6365,1.6364,1.6363,0,1.5941,1.6008,1.6061,1.6079,1.6126,1.615,1.617,1.6203,1.6228,1.6264,1.628,1.6321,1.6343,1.6373,1.639,1.6373,1.645,1.6431,1.646,1.6459,1.6476,1.6475,1.655,1.649,1.649,1.649,1.6489,0,1.6005,1.605,1.6078,1.611,1.6159,1.6176,1.6224,1.6243,1.6273,1.6308,1.6313,1.6346,1.6366,1.6401,1.6415,1.6463,1.6473,1.6482,1.6485,1.6482,1.6481,1.6496,1.6493,1.6492,1.6491,1.6491,1.649,0,1.6056,1.6077,1.6133,1.6172,1.6182,1.6217,1.625,1.628,1.6297,1.6341,1.6353,1.6379,1.6421,1.644,1.6492,1.65,1.6555,1.6556,1.6544,1.6545,1.6572,1.6569,1.666,1.6672,1.6604,1.6604,1.6605,0,1.6096,1.613,1.6172,1.6196,1.6216,1.6255,1.6281,1.6297,1.6323,1.6364,1.639,1.6431,1.6466,1.6531,1.6555,1.6594,1.6595,1.6624,1.6601,1.6596,1.6595,1.6592,1.6595,1.6628,1.6629,1.663,1.663,0,1.6165,1.6173,1.6209,1.6249,1.6279,1.6311,1.6343,1.6362,1.6383,1.6412,1.6455,1.6481,1.6533,1.6574,1.6614,1.6633,1.6635,1.6637,1.6645,1.6642,1.6633,1.6638,1.6555,1.6635,1.6634,1.6634,1.6634,1.6634,1.6211,1.6241,1.6274,1.6314,1.634,1.6368,1.6399,1.6419,1.6455,1.6498,1.6506,1.655,1.6582,1.6636,1.6657,1.6691,1.6684,1.6697,1.67,1.6703,1.6704,1.6628,1.6699,1.6699,1.6698,1.6698,1.6698,0,1.6279,1.63,1.6337,1.6381,1.6412,1.641,1.6444,1.647,1.651,1.6539,1.6573,1.662,1.6659,1.6685,1.6724,1.6746,1.6748,1.6756,1.6754,1.6759,1.6709,1.6697,1.6754,1.6754,1.6754,1.6754,1.6754,1.6754,1.6318,1.6368,1.638,1.6442,1.6463,1.6507,1.6526,1.6552,1.6576,1.6629,1.6661,1.6677,1.6705,1.6746,1.6781,1.6787,1.6801,1.6809,1.6816,1.6768,1.6762,1.6757,1.6746,1.6812,1.6813,1.6863,1.6863,1.6864]}]]